7 * 24
多渠道服务支持
STARLINK-37389(NORAD编号68778)是SpaceX星链(Starlink)卫星互联网星座中的一颗近地轨道卫星。星链项目旨在通过构建近地轨道卫星群,为全球提供高速互联网接入服务,尤其覆盖偏远地区及网络基础设施匮乏区域。该卫星遵循星链星座标准化设计,运行于近地轨道,参与全球卫星通信组网,支持星链系统的宽带互联网接入服务,助力实现星座的全球覆盖目标,是SpaceX大规模星链组网部署中的组成单元之一,助力提升星座网络服务容量与覆盖范围。
美国
(US)
| 数据来源 | 国际轨道数据 |
| 星历时间: | 2026-05-24T12:00:02+0800 1天前 查看轨道信息 |
| 半长轴: | 6747.42km |
| 偏心率: | 0.0001481 |
| 轨道倾角: | 97.285° |
| 近地点辐角 | 55.576° |
| 升交点赤经 | 180.979° |
| 平近点角 | 33.041° |
| 近地点: | 368.283km |
| 远地点: | 370.283km |
| 周期: | 91.932分钟 |
| 每日圈数: | 15.663767 |